Regional Weather Roundup
Issued by NWS

Home | Current Version | Previous Version | Graphics & Text | Print | Product List | Glossary On
Versions: 1 2 3 4 5 6 7 8 9 10 11 12 13 14 15 16 17 18 19 20 21 22 23 24 25 26 27 28 29 30 31 32 33 34 35 36 37 38 39 40 41 42 43 44 45 46 47 48 49 50
000
ASUS43 KMPX 011701
RWRMN
WEATHER ROUNDUP FOR MINNESOTA
NATIONAL WEATHER SERVICE TWIN CITIES/CHANHASSEN MN
1200 PM CDT FRI AUG 01 2014


NOTE: "FAIR" INDICATES FEW OR NO CLOUDS BELOW 12,000 FEET WITH NO
SIGNIFICANT WEATHER AND/OR OBSTRUCTIONS TO VISIBILITY. N/A MEANS
CURRENT SKY AND/OR WEATHER CONDITIONS ARE NOT AVAILABLE.

MNZ060>063-068>070-011800-
   Twin Cities Metro

CITY           SKY/WX    TMP DP  RH WIND       PRES   REMARKS
TWIN CITIES    MOSUNNY   82  57  42 W7        30.06S
ST PAUL        PTSUNNY   80  61  52 VRB7      30.06S
CRYSTAL        MOSUNNY   83  59  44 NW9       30.05S
BLAINE         MOSUNNY   81  63  54 CALM      30.06S
LAKEVILLE      SUNNY     79  61  53 W6        30.07S
EDEN PRAIRIE   SUNNY     81  60  48 VRB5      30.06S
SOUTH ST PAUL  SUNNY     81  60  49 W7        30.06S
LAKE ELMO      FAIR      79  61  53 CALM      30.07S
$$
MNZ001>005-007-008-013>017-022>024-027-028-011800-
   Northwest Minnesota

CITY           SKY/WX    TMP DP  RH WIND       PRES   REMARKS
BEMIDJI        SUNNY     76  55  48 N5        30.08R
HALLOCK        SUNNY     79  59  50 NW6       30.08R
ROSEAU         SUNNY     77  57  50 N5        30.08S
WARROAD        SUNNY     73  61  64 NE7       30.08F
THIEF RVR FALL SUNNY     75  59  57 N7        30.09R
CROOKSTON      SUNNY     77  61  57 N9        30.09S
FOSSTON        SUNNY     75  59  57 NW7       30.09S
DETROIT LAKES  SUNNY     77  55  47 N8        30.11R
MOORHEAD       SUNNY     79  64  61 NE8       30.09R
PARK RAPIDS    MOSUNNY   79  54  41 NW6       30.08R
$$
MNZ006-009>011-018-025>026-011800-
   North Central Minnesota

CITY           SKY/WX    TMP DP  RH WIND       PRES   REMARKS
BAUDETTE       SUNNY     77  53  43 N10       30.08S
FLAG ISLAND    SUNNY     73  52  46 CALM      30.07S
INTL FALLS     SUNNY     74  53  48 NE6       30.07R
WASKISH        SUNNY     73  64  73 CALM      30.07S
BIG FORK       SUNNY    N/A N/A N/A N3        30.07R
LONGVILLE      SUNNY     75  57  53 W6        30.08R
GRAND RAPIDS   SUNNY     75  57  53 CALM      30.07S
CRANE LAKE     SUNNY     72  50  46 NE3       30.08S
ORR            SUNNY     73  52  46 CALM      30.05S
COOK           SUNNY     75  57  53 W5        30.07S
$$
MNZ012-019>021-037-011800-
   Northeast Minnesota

CITY           SKY/WX    TMP DP  RH WIND       PRES   REMARKS
DULUTH         MOSUNNY   73  56  54 VRB5      30.07F
ELY            MOSUNNY   72  54  53 SW3       30.08S
HIBBING        SUNNY     78  56  46 CALM      30.06F
EVELETH        SUNNY     77  55  47 CALM      30.08S
DULUTH HARBOR  SUNNY     63  54  72 NE3       30.08S
TWO HARBORS    SUNNY     70  54  56 SE3       30.06S
SILVER BAY     MOSUNNY   68  57  68 S6        30.06S
GRAND MARAIS     N/A     65  52  62 E3        30.07S
G MARAIS ARPRT MOSUNNY   66  50  55 S7        30.10S
$$
MNZ029>031-032-039>041-046>048-054>057-064-011800-
   West Central Minnesota

CITY           SKY/WX    TMP DP  RH WIND       PRES   REMARKS
FERGUS FALLS   SUNNY     79  61  53 NW5       30.08R
WHEATON        SUNNY     77  61  57 W10       30.10S
MORRIS         SUNNY     77  63  61 NW7       30.08S
ALEXANDRIA     SUNNY     79  61  53 NW9       30.10S
ELBOW LAKE     FAIR      77  63  63 NW5       30.09R
WADENA         SUNNY     77  61  57 NW5       30.08S
GLENWOOD       SUNNY     81  61  50 NW6       30.10S
APPLETON       SUNNY     82  57  42 NW6       30.09S
BENSON         SUNNY     81  63  54 N6        30.09R
ORTONVILLE     SUNNY     81  59  47 CALM      30.09S
MADISON        SUNNY     81  61  50 N3        30.09S
WILLMAR        FAIR      79  59  50 NW6       30.10S
$$
MNZ033>034-036-042>043-049>051-058-059-011800-
   Central Minnesota

CITY           SKY/WX    TMP DP  RH WIND       PRES   REMARKS
ST CLOUD       MOSUNNY   82  58  43 VRB6      30.07S
SAUK CENTRE    FAIR      78  60  53 W5        30.09S
PAYNESVILLE    SUNNY     78  56  47 CALM      30.09S HAZE
AITKIN         MOSUNNY   79  63  57 CALM      30.06R
PINE RIVER     SUNNY     79  61  53 NW5       30.10S
BRAINERD       SUNNY     78  61  55 W6        30.07S
STAPLES        MOSUNNY   79  57  47 NW6       30.08S
LONG PRAIRIE   FAIR      77  59  53 CALM      30.09S
LITTLE FALLS   MOSUNNY   79  55  44 W5        30.08R
LITCHFIELD     SUNNY     81  61  50 W6        30.09S
BUFFALO        SUNNY     78  59  52 CALM      30.08R
MAPLE LAKE     SUNNY     80  64  59 NW6       30.08S
$$
MNZ037-044-045-052-053-011800-
   East Central Minnesota

CITY           SKY/WX    TMP DP  RH WIND       PRES   REMARKS
PRINCETON      MOSUNNY   81  61  50 NW5       30.07S
MORA           SUNNY     75  55  50 CALM      30.08S
CAMBRIDGE      SUNNY     81  61  50 W5        30.05S
RUSH CITY      SUNNY     78  58  50 CALM      30.07R
MOOSE LAKE     SUNNY     75  55  50 CALM      30.05S
HINCKLEY       FAIR      77  59  53 CALM      30.07R
CLOQUET        SUNNY     72  55  56 CALM      30.08R
MCGREGOR       SUNNY     77  59  53 NW6       30.07S
$$
MNZ071>073-080-081-089-090-097-098-011800-
   Southwest Minnesota

CITY           SKY/WX    TMP DP  RH WIND       PRES   REMARKS
MONTEVIDEO     SUNNY     81  63  54 N3        30.10S
GRANITE FALLS  SUNNY     77  61  57 W3        30.11S
CANBY          SUNNY     79  56  45 CALM      30.11F
MARSHALL       SUNNY     79  57  47 CALM      30.10S
REDWOOD FALLS  MOSUNNY   80  59  48 VRB6      30.09S
OLIVIA         MOSUNNY   79  59  50 W6        30.09S
PIPESTONE      PTSUNNY   75  55  50 CALM      30.13R
WINDOM         SUNNY     77  55  47 NW3       30.12R
WORTHINGTON    MOSUNNY   75  57  53 NE5       30.14R
JACKSON        SUNNY     77  54  44 NW3       30.12S
TRACY          SUNNY     78  58  50 CALM      30.12R
SLAYTON        SUNNY     77  53  42 CALM      30.13S
$$
MNZ065>067-074>077-082>085-091>093-011800-
   South Central Minnesota

CITY           SKY/WX    TMP DP  RH WIND       PRES   REMARKS
MANKATO        SUNNY     77  59  53 NW3       30.09S
NEW ULM        SUNNY     79  61  53 NW5       30.09S
ST JAMES       SUNNY     81  57  44 CALM      30.11R
FAIRMONT       SUNNY     81  55  41 N3        30.11R
GLENCOE        SUNNY     80  59  48 SW7       30.08R
FARIBAULT      SUNNY     82  54  36 SW6       30.09S
OWATONNA       SUNNY     79  59  50 SW3       30.10R
WASECA         SUNNY     77  57  50 NW3       30.11S
ALBERT LEA     MOSUNNY   79  54  41 NW3       30.10S
$$
MNZ078>079-086>088-094>096-011800-
   Southeast Minnesota

CITY           SKY/WX    TMP DP  RH WIND       PRES   REMARKS
ROCHESTER      SUNNY     78  59  51 W7        30.11S
RED WING       SUNNY     81  61  50 CALM      30.05S
STANTON        SUNNY     79  60  50 W3        30.07S
DODGE CENTER   MOSUNNY   79  61  53 W7        30.10S
WINONA         SUNNY     79  59  50 W5        30.07S
AUSTIN         MOSUNNY   79  55  44 CALM      30.10S
PRESTON        SUNNY     76  62  60 NW3       30.11S
$$
ABBREVIATIONS USED IN REMARKS
   TC - TEMPERATURES IN CELSIUS
  WCI - WIND CHILL INDEX
   HX - HEAT INDEX
  VSB - VISIBILITY
$$



USA.gov is the U.S. government's official web portal to all federal, state and local government web resources and services.